Wind_Speed
44 43 42 41 41 41 41 41 42 42 41 41 41 42 42 43 44 44 45 46 47 48 49 50 51 52 53 52 53 52 51 52 53 52 49 46 43 41 39 37 36 35 34
40 40 39 39 39 39 39 39 41 42 42 43 44 44 45 45 45 47 47 48 49 50 50 51 51 51 50 50 49 50 51 51 53 53 50 47 43 40 38 37 37 36 35
39 39 39 40 41 42 42 43 44 45 46 47 47 48 48 48 48 48 49 49 50 51 51 51 51 51 50 48 47 48 48 49 49 50 49 46 44 42 39 38 38 37 36
37 38 38 39 40 41 42 43 44 44 46 47 48 48 48 48 48 49 49 49 49 50 51 52 53 52 51 49 47 47 46 45 44 44 44 44 44 43 40 39 39 39 37
35 35 36 36 37 38 38 39 39 39 40 42 43 44 45 45 45 46 46 47 48 49 49 50 52 53 52 50 48 46 45 43 41 39 39 41 43 44 43 41 40 39 39
34 33 33 34 34 35 35 35 35 35 36 38 40 41 42 43 44 44 45 47 48 49 48 49 51 52 52 50 48 46 44 41 38 36 37 39 42 44 45 45 41 39 39
35 35 35 34 35 36 36 36 37 37 38 39 41 42 43 44 45 47 48 49 50 50 49 49 50 51 50 48 46 43 41 38 36 36 37 39 40 43 46 45 41 37 35
39 40 39 39 38 38 39 39 39 40 40 41 42 44 46 47 48 49 50 52 52 51 50 49 48 48 46 44 42 41 37 35 36 37 37 39 42 42 41 38 34 31 31
42 43 44 44 42 41 41 41 41 41 42 43 44 46 47 48 49 50 52 52 52 51 48 46 44 42 40 37 36 36 33 33 35 35 35 37 37 36 32 29 28 28 29
42 44 45 45 45 44 44 44 43 43 44 45 46 47 48 48 49 49 50 50 48 45 42 39 37 36 33 31 32 31 30 30 30 30 30 30 29 26 25 25 27 28 30
39 43 44 44 44 44 45 46 45 44 45 46 47 47 47 47 47 47 46 44 41 38 35 33 32 32 31 30 30 29 28 28 26 24 23 22 21 21 23 26 27 29 30
38 41 42 43 42 41 41 42 43 43 43 44 44 44 43 43 42 41 39 36 34 32 30 29 29 29 29 30 29 29 27 26 24 23 21 21 22 23 25 26 28 29 30
39 40 41 41 40 40 39 39 39 39 39 39 39 38 37 36 35 35 32 30 28 27 27 29 28 27 28 28 27 28 27 25 24 23 23 23 24 24 25 27 28 29 29
39 40 40 40 39 38 38 37 36 36 35 34 33 33 32 31 30 28 26 23 22 22 24 25 26 26 27 27 26 26 25 24 23 23 23 23 23 24 26 26 27 28 29
40 40 40 40 39 39 38 37 35 34 32 30 29 29 29 27 25 23 21 18 15 15 18 20 21 23 25 25 24 24 24 23 22 22 21 21 22 23 24 25 26 27 29
40 40 40 40 39 39 39 37 34 32 30 28 27 27 26 24 21 19 17 15 11 7 8 9 11 13 15 17 19 20 21 22 22 21 20 20 20 21 22 23 25 27 28
40 39 39 38 39 39 38 36 33 31 29 27 26 25 23 20 17 16 14 12 9 7 5 4 6 8 10 12 13 15 17 18 19 19 19 20 20 21 22 23 25 26 28
42 39 38 38 39 39 38 35 32 30 28 26 25 22 19 17 15 14 11 10 8 7 6 6 7 9 10 11 12 13 14 15 16 17 18 18 18 18 20 22 23 24 25
44 42 40 38 38 38 38 36 30 29 27 25 23 20 16 14 13 12 11 10 9 9 9 9 9 10 10 11 12 13 14 15 15 16 16 16 16 17 17 17 18 18 19
44 44 42 39 37 37 37 35 30 28 26 23 20 17 15 13 12 12 11 11 11 11 11 11 11 12 12 12 12 12 12 12 13 13 14 14 13 13 12 12 14 16 19
46 46 44 40 37 37 36 33 29 27 26 22 19 17 15 14 12 12 12 12 12 11 10 9 9 10 10 10 10 10 10 10 10 11 11 10 9 10 11 13 16 19 22
48 46 43 41 37 36 36 32 29 28 26 24 21 18 16 14 13 13 12 12 10 9 8 7 6 6 6 6 7 7 8 9 9 9 9 8 9 11 13 15 18 21 24
48 45 43 41 38 38 36 32 29 28 28 27 24 21 19 16 14 13 11 11 10 8 7 6 4 4 4 4 5 6 8 9 9 9 9 10 12 14 15 17 20 23 26
50 46 43 42 41 38 35 32 30 29 30 31 28 25 22 19 16 14 12 11 10 8 7 6 6 5 5 6 6 7 8 8 9 9 10 12 13 14 15 18 20 23 26
52 46 44 44 44 41 34 32 32 30 31 33 32 29 25 22 19 16 15 13 12 10 9 8 7 7 7 8 9 9 10 10 10 11 12 12 13 13 15 17 19 22 24
57 50 46 45 45 44 39 35 33 33 31 34 35 32 28 25 22 19 16 15 14 12 11 10 9 9 10 10 10 11 12 12 12 13 13 13 13 14 15 16 18 20 23
Wind_Direction
287 287 285 285 284 284 284 284 284 285 285 284 283 282 282 281 282 282 283 283 283 282 281 281 282 282 284 284 283 282 280 282 283 283 278 272 266 261 260 262 266 272 276
289 289 290 290 289 289 288 287 286 287 286 285 284 284 283 282 282 282 282 281 280 280 280 280 281 281 281 282 282 280 278 280 281 280 278 272 264 262 262 261 264 269 275
291 290 289 289 288 288 287 286 285 285 285 285 285 285 284 284 283 282 281 281 280 280 280 279 279 279 279 279 280 280 278 279 279 277 273 270 263 260 261 261 263 266 272
293 292 291 290 288 286 285 284 283 283 284 284 284 283 283 283 283 282 282 281 280 280 280 280 279 279 279 279 279 279 278 277 276 273 268 263 258 256 258 262 265 268 271
295 293 291 290 289 288 287 286 285 284 284 283 283 283 283 283 283 282 282 281 281 281 281 280 280 278 277 277 278 277 277 276 273 269 263 257 254 254 258 260 265 269 273
297 294 292 290 288 287 287 286 286 285 284 283 283 282 282 282 281 281 281 282 282 281 281 280 279 278 276 275 275 274 274 273 268 263 256 251 251 256 259 260 261 266 273
298 296 294 291 288 287 286 287 287 287 287 287 286 285 285 284 283 283 283 284 284 283 281 280 278 276 273 270 270 271 271 268 263 257 252 250 253 257 259 259 260 263 269
296 295 294 291 289 288 286 286 287 288 289 289 289 289 288 286 285 285 286 286 284 284 282 279 275 272 270 266 265 266 265 261 257 253 251 251 253 254 255 257 258 260 264
297 296 294 291 289 287 285 284 284 285 286 287 288 289 288 287 287 287 287 287 285 283 279 274 271 268 264 260 259 260 256 253 252 249 247 248 248 249 250 252 256 260 262
303 302 300 296 291 286 283 281 281 283 284 286 288 289 290 289 289 289 289 288 286 282 277 271 266 260 253 252 251 248 244 244 243 243 244 245 247 248 250 253 257 261 263
307 305 304 301 297 291 285 281 280 281 283 286 288 290 291 291 291 291 292 290 286 279 272 265 255 247 243 241 240 239 239 240 241 242 246 251 256 259 261 261 262 263 263
307 305 305 304 301 296 290 285 282 282 284 287 290 292 292 293 294 295 295 291 284 275 264 253 243 236 237 237 236 238 238 241 246 250 258 265 271 272 269 267 265 265 266
307 308 308 308 305 300 293 288 285 285 286 289 292 295 297 299 300 301 300 291 280 270 256 247 238 232 233 234 236 241 244 247 252 257 262 266 270 271 270 269 268 270 272
307 309 309 309 308 304 298 292 289 287 288 290 294 298 302 304 305 306 305 297 283 268 254 244 236 230 231 233 236 241 245 250 254 258 262 265 267 269 270 272 274 276 277
308 309 309 310 309 307 302 295 290 288 287 289 293 299 304 305 304 306 309 306 293 269 247 241 235 229 229 229 231 238 244 248 254 259 262 265 268 271 274 276 278 280 280
307 307 308 309 310 309 306 298 290 287 285 287 292 299 303 302 300 301 309 313 310 281 248 233 228 230 232 233 237 245 249 251 253 257 262 266 270 274 277 279 281 282 283
305 305 307 309 310 311 310 302 290 284 282 284 289 295 299 299 297 296 301 305 306 300 283 257 245 247 248 246 247 249 251 253 255 258 261 266 270 272 275 277 279 282 285
304 304 305 307 308 309 311 306 291 282 280 282 287 291 293 292 291 290 293 294 293 288 283 275 261 253 248 244 246 248 250 253 256 258 260 262 265 269 274 280 284 287 291
300 301 302 302 303 305 307 307 292 280 278 279 282 285 285 286 287 283 283 284 283 283 281 276 269 263 259 256 253 253 255 256 257 257 260 264 270 277 282 287 292 296 300
294 295 296 296 297 299 301 303 291 278 275 275 275 276 278 279 280 279 276 279 281 283 282 280 274 268 265 264 260 258 257 255 256 259 263 269 276 283 290 296 303 306 308
288 289 291 290 291 293 295 296 288 275 270 267 265 267 272 276 278 277 274 274 276 280 276 272 272 269 266 263 260 255 256 258 259 264 269 275 281 288 295 301 306 308 309
283 283 283 283 285 286 287 288 282 272 263 258 258 261 266 271 274 271 266 263 264 266 262 259 268 264 256 252 250 251 257 262 266 268 270 276 284 291 297 302 306 308 311
278 277 277 275 276 275 277 278 275 267 256 251 253 256 260 264 265 262 254 248 248 245 241 240 247 258 258 245 242 252 264 267 267 266 271 282 289 294 301 306 310 312 315
274 271 269 268 267 265 267 270 267 262 252 246 247 250 254 257 259 254 245 238 235 232 230 236 247 256 254 250 252 260 266 268 270 272 279 288 293 298 304 310 313 315 318
271 268 265 263 261 262 260 263 261 259 251 243 242 245 249 252 252 248 240 234 231 230 236 244 255 265 266 262 260 263 266 269 271 276 283 288 293 301 306 308 312 317 322
275 272 267 263 259 259 257 254 255 253 251 242 238 239 243 246 246 244 239 234 230 231 238 248 258 266 272 274 274 271 270 270 272 277 282 286 289 294 301 308 317 324 329
Height
5870 5870 5869 5868 5868 5867 5866 5864 5862 5860 5858 5857 5856 5856 5855 5854 5853 5852 5851 5850 5848 5847 5846 5845 5844 5842 5840 5838 5837 5836 5836 5836 5836 5835 5836 5838 5840 5842 5844 5846 5847 5847 5846
5863 5861 5860 5858 5857 5857 5856 5855 5853 5850 5849 5847 5846 5845 5844 5844 5843 5842 5841 5840 5838 5836 5834 5833 5832 5831 5829 5828 5826 5825 5824 5824 5823 5822 5823 5825 5828 5831 5834 5836 5837 5838 5838
5855 5853 5852 5850 5849 5847 5846 5845 5843 5841 5839 5837 5836 5834 5833 5832 5831 5830 5829 5828 5826 5825 5823 5822 5821 5819 5818 5817 5816 5814 5813 5813 5812 5811 5811 5813 5816 5820 5824 5825 5827 5829 5829
5847 5845 5843 5841 5839 5838 5836 5835 5834 5832 5830 5828 5825 5823 5822 5821 5820 5819 5817 5817 5816 5814 5812 5811 5809 5808 5806 5805 5804 5803 5801 5801 5800 5800 5800 5802 5805 5809 5813 5815 5816 5818 5820
5841 5838 5836 5833 5831 5829 5827 5826 5825 5823 5821 5819 5817 5814 5813 5811 5810 5808 5806 5805 5803 5802 5800 5799 5797 5796 5794 5793 5793 5792 5791 5790 5789 5789 5790 5792 5795 5799 5803 5806 5807 5808 5810
5834 5831 5829 5826 5824 5821 5820 5818 5817 5815 5813 5811 5808 5806 5804 5802 5799 5797 5795 5793 5791 5790 5788 5786 5785 5783 5782 5782 5781 5781 5780 5779 5779 5780 5782 5784 5787 5789 5792 5795 5797 5799 5800
5827 5824 5822 5819 5817 5814 5812 5810 5808 5806 5804 5801 5799 5796 5794 5791 5789 5786 5784 5781 5779 5777 5775 5773 5772 5771 5770 5770 5770 5770 5770 5770 5771 5772 5774 5776 5778 5780 5782 5785 5788 5790 5791
5820 5816 5813 5811 5809 5807 5804 5802 5799 5797 5794 5792 5789 5786 5783 5780 5777 5774 5771 5768 5765 5762 5761 5759 5758 5758 5758 5759 5759 5760 5760 5761 5762 5764 5766 5767 5769 5771 5773 5775 5778 5781 5783
5812 5808 5804 5801 5799 5797 5795 5793 5790 5788 5785 5782 5779 5776 5772 5769 5766 5762 5758 5754 5751 5748 5746 5745 5745 5745 5747 5748 5749 5751 5752 5754 5755 5756 5757 5758 5759 5761 5763 5766 5769 5772 5774
5804 5799 5795 5791 5788 5786 5784 5782 5780 5778 5775 5772 5768 5765 5762 5758 5754 5750 5745 5740 5737 5734 5732 5732 5733 5735 5738 5740 5742 5743 5744 5746 5747 5748 5748 5749 5750 5752 5755 5759 5762 5764 5766
5797 5791 5786 5781 5777 5774 5772 5770 5769 5767 5764 5761 5757 5754 5750 5746 5742 5737 5732 5727 5724 5722 5721 5722 5724 5727 5730 5733 5735 5736 5737 5739 5740 5741 5742 5742 5744 5747 5749 5752 5755 5757 5759
5790 5784 5778 5772 5768 5764 5761 5759 5757 5756 5753 5750 5747 5743 5739 5735 5730 5726 5721 5716 5713 5712 5712 5714 5717 5720 5723 5726 5728 5730 5731 5732 5733 5735 5736 5738 5740 5742 5745 5748 5750 5752 5753
5782 5777 5771 5765 5760 5756 5752 5749 5747 5745 5743 5740 5737 5734 5730 5725 5721 5716 5711 5707 5705 5704 5705 5707 5710 5713 5716 5719 5721 5723 5725 5727 5728 5730 5732 5734 5736 5738 5741 5743 5744 5745 5746
5776 5770 5765 5759 5754 5749 5744 5741 5739 5736 5734 5732 5729 5726 5722 5718 5714 5709 5705 5700 5698 5697 5698 5700 5703 5706 5709 5713 5715 5718 5720 5722 5724 5726 5728 5730 5732 5734 5736 5737 5738 5739 5739
5769 5764 5758 5753 5747 5742 5738 5734 5731 5729 5727 5725 5722 5720 5716 5712 5709 5705 5701 5697 5694 5693 5694 5696 5698 5700 5704 5706 5709 5712 5715 5717 5719 5721 5723 5725 5727 5729 5730 5731 5731 5732 5732
5761 5756 5751 5746 5740 5735 5731 5726 5724 5722 5720 5718 5716 5714 5711 5708 5705 5702 5699 5696 5693 5692 5692 5693 5695 5697 5700 5702 5705 5708 5710 5713 5715 5717 5719 5720 5721 5723 5724 5724 5725 5725 5725
5753 5748 5743 5738 5733 5728 5724 5720 5717 5716 5714 5712 5711 5709 5707 5704 5702 5699 5697 5695 5693 5692 5691 5692 5694 5695 5697 5699 5702 5704 5706 5708 5710 5712 5714 5715 5716 5717 5717 5718 5718 5718 5717
5743 5739 5734 5729 5724 5720 5716 5713 5711 5709 5708 5706 5705 5704 5702 5700 5698 5696 5695 5693 5692 5691 5691 5691 5692 5694 5695 5697 5699 5701 5702 5704 5706 5707 5708 5709 5710 5711 5711 5711 5711 5711 5709
5733 5729 5725 5721 5717 5712 5708 5705 5703 5702 5702 5701 5699 5698 5697 5696 5694 5693 5692 5691 5690 5690 5690 5690 5691 5691 5693 5694 5695 5697 5699 5700 5702 5703 5704 5705 5705 5705 5705 5705 5705 5704 5703
5722 5718 5715 5712 5708 5704 5701 5698 5696 5696 5695 5695 5694 5693 5692 5691 5690 5689 5689 5688 5688 5687 5687 5687 5688 5688 5689 5691 5692 5693 5695 5696 5698 5699 5700 5700 5701 5701 5701 5701 5701 5700 5699
5709 5706 5704 5701 5699 5696 5693 5690 5689 5688 5689 5689 5688 5687 5687 5686 5686 5685 5685 5684 5684 5684 5684 5684 5684 5685 5686 5688 5689 5691 5692 5694 5695 5695 5696 5696 5697 5698 5698 5697 5696 5695 5694
5694 5692 5691 5689 5688 5686 5683 5682 5681 5681 5682 5682 5682 5682 5681 5681 5681 5680 5680 5680 5680 5681 5681 5681 5682 5683 5684 5686 5687 5688 5690 5691 5692 5692 5693 5693 5694 5695 5694 5693 5692 5691 5689
5678 5677 5676 5675 5674 5672 5670 5670 5671 5672 5673 5675 5675 5676 5676 5676 5676 5676 5676 5676 5677 5677 5678 5679 5680 5681 5682 5683 5684 5686 5687 5688 5689 5689 5690 5691 5691 5691 5690 5689 5688 5686 5683
5659 5659 5659 5659 5658 5655 5655 5658 5660 5662 5663 5666 5668 5669 5670 5670 5670 5671 5672 5673 5674 5674 5675 5676 5678 5679 5680 5681 5682 5683 5684 5685 5686 5686 5687 5687 5687 5686 5686 5685 5683 5681 5678
5638 5639 5641 5642 5641 5639 5640 5644 5648 5650 5652 5655 5659 5661 5663 5664 5665 5666 5667 5669 5670 5671 5672 5674 5675 5677 5678 5679 5679 5680 5681 5681 5682 5682 5683 5683 5683 5683 5682 5682 5680 5676 5673
5616 5618 5622 5624 5625 5626 5626 5629 5633 5637 5641 5644 5649 5652 5655 5657 5659 5661 5662 5664 5666 5667 5669 5670 5672 5673 5675 5675 5676 5677 5678 5678 5678 5679 5679 5679 5679 5680 5679 5677 5675 5672 5668